• In Belarus
  • List of Countries
  • For 7 days
  • Water Temperature
  • Satellite Maps
  • Weather Map
  • Weather Widgets
  • user-avatar
    Login

    Hourly Weather Tetuan

    Today, 22 September, Saturday

    Time Temperature Precipitation Wind Pressure Humidity
    00:00 +26°C° 0 mm 3 mps 758 mmHg 67%
    01:00 +25°C° 0 mm 3 mps 758 mmHg 66%
    02:00 +25°C° 0 mm 3 mps 757 mmHg 65%
    03:00 +25°C° 0 mm 3 mps 757 mmHg 64%
    04:00 +25°C° 0 mm 3 mps 757 mmHg 63%
    05:00 +24°C° 0 mm 3 mps 757 mmHg 62%
    06:00 +24°C° 0 mm 3 mps 757 mmHg 61%
    07:00 +26°C° 0 mm 3 mps 758 mmHg 53%
    08:00 +28°C° 0 mm 3 mps 758 mmHg 46%
    09:00 +30°C° 0 mm 3 mps 758 mmHg 38%
    10:00 +33°C° 0 mm 4 mps 758 mmHg 34%
    11:00 +34°C° 0 mm 4 mps 758 mmHg 29%
    12:00 +36°C° 0 mm 5 mps 759 mmHg 25%
    13:00 +36°C° 0 mm 5 mps 758 mmHg 26%
    14:00 +36°C° 0 mm 5 mps 758 mmHg 27%
    15:00 +35°C° 0 mm 5 mps 758 mmHg 28%
    16:00 +34°C° 0 mm 5 mps 758 mmHg 35%
    17:00 +32°C° 0 mm 4 mps 757 mmHg 43%
    18:00 +29°C° 0 mm 4 mps 757 mmHg 50%
    19:00 +28°C° 0 mm 4 mps 758 mmHg 55%
    20:00 +27°C° 0 mm 4 mps 758 mmHg 60%
    21:00 +25°C° 0 mm 4 mps 759 mmHg 65%
    22:00 +25°C° 0 mm 4 mps 758 mmHg 63%
    23:00 +25°C° 0 mm 4 mps 758 mmHg 62%

    Tomorrow, 23 September, Sunday

    Time Temperature Precipitation Wind Pressure Humidity
    00:00 +23°C° 0 mm 4 mps 758 mmHg 60%
    01:00 +23°C° 0 mm 4 mps 758 mmHg 60%
    02:00 +23°C° 0 mm 4 mps 758 mmHg 59%
    03:00 +23°C° 0 mm 4 mps 758 mmHg 59%
    04:00 +22°C° 0 mm 4 mps 758 mmHg 60%
    05:00 +22°C° 0 mm 4 mps 758 mmHg 61%
    06:00 +22°C° 0 mm 3 mps 758 mmHg 61%
    07:00 +25°C° 0 mm 4 mps 758 mmHg 55%
    08:00 +27°C° 0 mm 4 mps 758 mmHg 50%
    09:00 +30°C° 0 mm 4 mps 758 mmHg 44%
    10:00 +32°C° 0 mm 4 mps 758 mmHg 40%
    11:00 +34°C° 0 mm 4 mps 758 mmHg 36%
    12:00 +35°C° 0 mm 4 mps 758 mmHg 32%
    13:00 +35°C° 0 mm 4 mps 758 mmHg 33%
    14:00 +35°C° 0 mm 4 mps 757 mmHg 34%
    15:00 +35°C° 0 mm 4 mps 757 mmHg 35%
    16:00 +34°C° 0 mm 4 mps 757 mmHg 43%
    17:00 +32°C° 0 mm 4 mps 757 mmHg 50%
    18:00 +30°C° 0 mm 3 mps 757 mmHg 57%
    19:00 +28°C° 0 mm 3 mps 757 mmHg 63%
    20:00 +27°C° 0 mm 3 mps 758 mmHg 68%
    21:00 +26°C° 0 mm 3 mps 758 mmHg 74%
    22:00 +26°C° 0 mm 3 mps 758 mmHg 72%
    23:00 +26°C° 0 mm 3 mps 758 mmHg 71%

    Day after tomorrow, 24 September, Monday

    Time Temperature Precipitation Wind Pressure Humidity
    00:00 +25°C° 0 mm 3 mps 757 mmHg 70%
    01:00 +25°C° 0 mm 3 mps 757 mmHg 69%
    02:00 +25°C° 0 mm 3 mps 757 mmHg 69%
    03:00 +25°C° 0 mm 3 mps 757 mmHg 68%
    04:00 +25°C° 0 mm 3 mps 757 mmHg 68%
    05:00 +24°C° 0 mm 3 mps 757 mmHg 68%
    06:00 +24°C° 0 mm 3 mps 757 mmHg 67%
    07:00 +26°C° 0 mm 3 mps 757 mmHg 61%
    08:00 +28°C° 0 mm 3 mps 758 mmHg 54%
    09:00 +30°C° 0 mm 3 mps 758 mmHg 47%
    10:00 +33°C° 0 mm 3 mps 758 mmHg 43%
    11:00 +34°C° 0 mm 4 mps 758 mmHg 38%
    12:00 +36°C° 0 mm 4 mps 758 mmHg 34%
    13:00 +36°C° 0 mm 4 mps 757 mmHg 34%
    14:00 +36°C° 0 mm 4 mps 757 mmHg 35%
    15:00 +36°C° 0 mm 4 mps 756 mmHg 35%
    16:00 +34°C° 0 mm 4 mps 756 mmHg 42%
    17:00 +33°C° 0 mm 4 mps 756 mmHg 49%
    18:00 +30°C° 0 mm 4 mps 756 mmHg 56%
    19:00 +29°C° 0 mm 4 mps 757 mmHg 62%
    20:00 +28°C° 0 mm 4 mps 757 mmHg 67%
    21:00 +27°C° 0 mm 4 mps 757 mmHg 72%
    22:00 +26°C° 0 mm 4 mps 757 mmHg 71%
    23:00 +26°C° 0 mm 4 mps 757 mmHg 71%

    25 September, Tuesday

    Time Temperature Precipitation Wind Pressure Humidity
    00:00 +26°C° 0 mm 4 mps 757 mmHg 70%
    01:00 +26°C° 0 mm 4 mps 757 mmHg 70%
    02:00 +25°C° 0 mm 4 mps 757 mmHg 70%
    03:00 +25°C° 0 mm 4 mps 757 mmHg 71%
    04:00 +25°C° 0 mm 4 mps 757 mmHg 71%
    05:00 +25°C° 0 mm 4 mps 757 mmHg 72%
    06:00 +23°C° 0 mm 4 mps 757 mmHg 72%
    07:00 +26°C° 0 mm 4 mps 757 mmHg 66%
    08:00 +28°C° 0 mm 4 mps 758 mmHg 60%
    09:00 +30°C° 0 mm 4 mps 758 mmHg 54%
    10:00 +32°C° 0 mm 5 mps 758 mmHg 50%
    11:00 +34°C° 0 mm 5 mps 758 mmHg 45%
    12:00 +35°C° 0 mm 5 mps 758 mmHg 41%
    13:00 +35°C° 0 mm 5 mps 757 mmHg 42%
    14:00 +35°C° 0 mm 5 mps 757 mmHg 44%
    15:00 +35°C° 0 mm 6 mps 757 mmHg 45%
    16:00 +33°C° 0 mm 6 mps 757 mmHg 53%
    17:00 +30°C° 0 mm 6 mps 757 mmHg 60%
    18:00 +29°C° 0 mm 5 mps 757 mmHg 68%
    19:00 +28°C° 0 mm 6 mps 757 mmHg 72%
    20:00 +27°C° 0 mm 6 mps 758 mmHg 76%
    21:00 +26°C° 0 mm 6 mps 758 mmHg 80%
    22:00 +26°C° 0 mm 6 mps 758 mmHg 81%
    23:00 +26°C° 0 mm 6 mps 758 mmHg 81%

    26 September, Wednesday

    Time Temperature Precipitation Wind Pressure Humidity
    00:00 +24°C° 0 mm 6 mps 758 mmHg 82%
    01:00 +24°C° 0 mm 6 mps 758 mmHg 82%
    02:00 +24°C° 0 mm 6 mps 758 mmHg 83%
    03:00 +24°C° 0 mm 6 mps 758 mmHg 83%
    04:00 +24°C° 0 mm 6 mps 758 mmHg 84%
    05:00 +23°C° 0 mm 6 mps 758 mmHg 84%
    06:00 +23°C° 0 mm 6 mps 758 mmHg 84%
    07:00 +26°C° 0 mm 7 mps 759 mmHg 77%
    08:00 +27°C° 0 mm 7 mps 759 mmHg 70%
    09:00 +28°C° 0 mm 7 mps 759 mmHg 63%
    10:00 +30°C° 0 mm 7 mps 759 mmHg 58%
    11:00 +32°C° 0 mm 7 mps 759 mmHg 53%
    12:00 +33°C° 0 mm 7 mps 759 mmHg 48%
    13:00 +33°C° 0 mm 7 mps 759 mmHg 50%
    14:00 +33°C° 0 mm 7 mps 758 mmHg 51%
    15:00 +33°C° 0 mm 7 mps 758 mmHg 52%
    16:00 +30°C° 0 mm 7 mps 758 mmHg 58%
    17:00 +29°C° 0 mm 7 mps 758 mmHg 64%
    18:00 +28°C° 0 mm 6 mps 758 mmHg 70%
    19:00 +27°C° 0 mm 6 mps 759 mmHg 73%
    20:00 +26°C° 0 mm 6 mps 759 mmHg 77%
    21:00 +26°C° 0 mm 6 mps 759 mmHg 81%
    22:00 +24°C° 0 mm 6 mps 759 mmHg 82%
    23:00 +25°C° 0 mm 5 mps 759 mmHg 83%

    27 September, Thursday

    Time Temperature Precipitation Wind Pressure Humidity
    00:00 +25°C° 0 mm 5 mps 759 mmHg 84%
    01:00 +25°C° 0 mm 5 mps 759 mmHg 84%
    02:00 +25°C° 0 mm 5 mps 759 mmHg 84%
    03:00 +23°C° 0 mm 5 mps 759 mmHg 85%
    04:00 +23°C° 0 mm 5 mps 759 mmHg 85%
    05:00 +23°C° 0 mm 5 mps 759 mmHg 85%
    06:00 +23°C° 0 mm 5 mps 759 mmHg 85%
    07:00 +25°C° 0 mm 5 mps 759 mmHg 78%
    08:00 +27°C° 0 mm 5 mps 759 mmHg 71%
    09:00 +28°C° 0 mm 5 mps 759 mmHg 65%
    10:00 +29°C° 0 mm 5 mps 759 mmHg 59%
    11:00 +32°C° 0 mm 5 mps 759 mmHg 54%
    12:00 +33°C° 0 mm 5 mps 758 mmHg 48%
    13:00 +33°C° 0 mm 6 mps 758 mmHg 49%
    14:00 +33°C° 0 mm 6 mps 757 mmHg 50%
    15:00 +33°C° 0 mm 6 mps 757 mmHg 50%
    16:00 +32°C° 0 mm 5 mps 756 mmHg 57%
    17:00 +29°C° 0 mm 5 mps 756 mmHg 63%
    18:00 +28°C° 0 mm 5 mps 756 mmHg 70%
    19:00 +27°C° 0 mm 4 mps 757 mmHg 74%
    20:00 +26°C° 0 mm 4 mps 757 mmHg 78%
    21:00 +25°C° 0 mm 4 mps 757 mmHg 82%
    22:00 +25°C° 0 mm 4 mps 757 mmHg 81%
    23:00 +25°C° 0 mm 4 mps 757 mmHg 81%
    Show more